Retour au catalogue

STARLINK-3318

ActifCommunicationsVLEO
NORAD 50837·PAYLOAD·🇺🇸 United States

Lancé Jan 6, 2022 depuis Cape Canaveral Space Force Station

Loading…

Prochains Passages (prochaines 24 heures)

TLE

FraisSource: CelesTrak SupGP

Époque: Sep 15, 2026, 02:20 UTC

1 50837C 22001AL  26258.09770833 -.00016877  00000+0 -49870-3 0  2587
2 50837  53.1602  26.8527 0001091  79.6623 268.6299 15.34394654    13

Suivez STARLINK-3318 en temps réel avec AllMySat

Download on the App Store